Weather History for Cleveland, OH

Change the Weather History Date:

Wednesday, November 20, 2013

  Actual Average Record
Temperature  
Mean Temperature 38 °F 42 °F  
Max Temperature 48 °F 49 °F 73 °F (1931)
Min Temperature 27 °F 36 °F 15 °F (1951)
Degree Days  
Heating Degree Days 27 23  
Month to date heating degree days 411 385  
Since 1 July heating degree days 822 845  
Cooling Degree Days 0 0  
Month to date cooling degree days 0 0  
Year to date cooling degree days 889 816  
Moisture  
Dew Point 18 °F    
Average Humidity 55    
Maximum Humidity 81    
Minimum Humidity 28    
Precipitation  
Precipitation 0.00 in 0.13 in 1.53 in (1950)
Month to date precipitation 2.45 2.42  
Year to date precipitation 37.32 34.84  
Snow  
Snow 0.00 in 0.10 in - ()
Month to date snowfall 3.1 2.1  
Since 1 July snowfall 3.1 2.3  
Since 1 September snowfall 3.1 2.3  
Snow Depth 0.00 in    
Sea Level Pressure  
Sea Level Pressure 30.40 in    
Wind  
Wind Speed 8 mph (SE)    
Max Wind Speed 18 mph    
Max Gust Speed 24 mph    
Visibility 10 miles    
Events      
T = Trace of Precipitation, MM = Missing Value Source: NWS Daily Summary

Daily Weather History Graph

Daily Weather History Graph

Search for Another Location

Airport:

Trip Planner

Search our weather history database for the weather conditions in past years. The results will help you decide how hot, cold, wet, or windy it might be!

Date:

Astronomy

Nov. 20, 2013 Rise Set
Actual Time 7:22 AM EST 5:03 PM EST
Civil Twilight 6:51 AM EST 5:33 PM EST
Nautical Twilight 6:18 AM EST 6:07 PM EST
Astronomical Twilight 5:45 AM EST 6:40 PM EST
Moon 7:45 PM EST (11/20) 9:46 AM EST (11/20)
Length of Visible Light 10h 41m
Length of Day
9h 41m
Waning Gibbous, 91% of the Moon is Illuminated
Nov 20
Waning Gibbous
Nov 25
Last Quarter
Dec 2
New
Dec 9
First Quarter
Dec 17
Full

Hourly Weather History & Observations

Time (EST) Temp. Windchill Dew Point Humidity Pressure Visibility Wind Dir Wind Speed Gust Speed Precip Events Conditions
12:51 AM 28.0 °F 22.8 °F 21.9 °F 78% 30.45 in 10.0 mi SSE 4.6 mph - N/A   Mostly Cloudy
1:51 AM 28.9 °F - 21.9 °F 75% 30.44 in 10.0 mi Calm Calm - N/A   Mostly Cloudy
2:51 AM 28.9 °F - 21.9 °F 75% 30.45 in 10.0 mi Calm Calm - N/A   Mostly Cloudy
3:51 AM 28.9 °F - 21.0 °F 72% 30.45 in 10.0 mi Calm Calm - N/A   Mostly Cloudy
4:51 AM 28.0 °F - 21.0 °F 75% 30.45 in 10.0 mi Calm Calm - N/A   Scattered Clouds
5:51 AM 28.0 °F 22.8 °F 21.0 °F 75% 30.47 in 10.0 mi NE 4.6 mph - N/A   Scattered Clouds
6:51 AM 28.0 °F 21.7 °F 21.0 °F 75% 30.48 in 10.0 mi East 5.8 mph - N/A   Partly Cloudy
7:51 AM 30.0 °F 24.1 °F 21.9 °F 72% 30.48 in 10.0 mi East 5.8 mph - N/A   Partly Cloudy
8:51 AM 34.0 °F 25.5 °F 24.1 °F 67% 30.48 in 10.0 mi ESE 11.5 mph - N/A   Partly Cloudy
9:51 AM 37.9 °F 29.6 °F 21.0 °F 51% 30.47 in 10.0 mi ESE 13.8 mph - N/A   Scattered Clouds
10:51 AM 41.0 °F 33.1 °F 18.0 °F 40% 30.45 in 10.0 mi SE 15.0 mph - N/A   Scattered Clouds
11:51 AM 45.0 °F 39.7 °F 17.1 °F 33% 30.42 in 10.0 mi ESE 10.4 mph - N/A   Mostly Cloudy
12:51 PM 46.9 °F - 15.1 °F 28% 30.39 in 10.0 mi SE 13.8 mph - N/A   Mostly Cloudy
1:51 PM 48.0 °F - 17.1 °F 29% 30.38 in 10.0 mi SSE 11.5 mph - N/A   Mostly Cloudy
2:51 PM 48.0 °F - 18.0 °F 30% 30.36 in 10.0 mi SE 10.4 mph - N/A   Overcast
3:51 PM 46.9 °F - 17.1 °F 30% 30.35 in 10.0 mi SE 11.5 mph - N/A   Overcast
4:51 PM 46.0 °F 41.0 °F 16.0 °F 30% 30.33 in 10.0 mi ESE 10.4 mph - N/A   Mostly Cloudy
5:51 PM 42.1 °F 37.7 °F 17.1 °F 37% 30.35 in 10.0 mi SSE 6.9 mph - N/A   Partly Cloudy
6:51 PM 42.1 °F 40.2 °F 16.0 °F 35% 30.35 in 10.0 mi SE 3.5 mph - N/A   Scattered Clouds
7:51 PM 39.9 °F 36.7 °F 16.0 °F 38% 30.35 in 10.0 mi SSE 4.6 mph - N/A   Scattered Clouds
8:51 PM 41.0 °F 34.3 °F 16.0 °F 36% 30.33 in 10.0 mi SSE 11.5 mph - N/A   Scattered Clouds
9:51 PM 41.0 °F 34.3 °F 14.0 °F 33% 30.33 in 10.0 mi SSE 11.5 mph - N/A   Scattered Clouds
10:51 PM 39.9 °F 31.8 °F 15.1 °F 36% 30.33 in 10.0 mi SSE 15.0 mph - N/A   Mostly Cloudy
11:51 PM 41.0 °F 32.8 °F 15.1 °F 35% 30.33 in 10.0 mi SSE 16.1 mph 23.0 mph N/A   Overcast